Flag for Venezuela Weather past 2 weeks in Maracaibo, Venezuela

Now
81 °F

Passing clouds.


Feels Like: 85 °F
Forecast: 81 / 99 °F
Wind: N/A

Location: Maracaibo-La Chinita

Current Time: May 6, 2015 at 5:02:13 AM

Latest Report: May 6, 2015 at 1:30 AM


Visibility: N/A

Pressure: 29.83 "Hg

Humidity: 74%

Dew point: 72 °F

Location of MaracaiboLocation

Historic Weather in Maracaibo — Graph

°F

Maracaibo temperature yesterday

Maximum temperature yesterday: 99 °F (at 12:30 PM)
Minimum temperature yesterday: 79 °F (at 5:30 AM)
Average temperature yesterday: 88 °F

Past Weeks' High & Low Weather Summary

 TemperatureHumidityPressure
High102 °F (Apr 29, 3:30 PM)94% (Apr 21, 7:30 AM)29.98 "Hg (Apr 21, 7:30 AM)
Low77 °F (Apr 23, 5:30 AM)42% (Apr 29, 4:30 PM)29.71 "Hg (Apr 27, 4:30 PM)
Average88 °F69%29.84 "Hg
* Reported Apr 21 1:30 AM — May 6 1:30 AM, Maracaibo, Weather by CustomWeather, © 2015

Note: Actual official high and low records may vary slightly from our data, if they occured in-between our weather recording intervals... More about our weather records

Advertising

Maracaibo weather history for previous 24 hours

 ConditionsComfort  
Time TempWeatherWind HumidityBarometerVisibility
1:30 AM
Wed, May 6
81 °FPassing clouds.N/A74%29.83 "HgN/A
10:30 PM
Tue, May 5
81 °FPassing clouds.N/A74%29.83 "HgN/A
9:30 PM82 °FPassing clouds.N/A70%29.83 "HgN/A
8:30 PM82 °FPassing clouds.N/A70%29.83 "HgN/A
7:30 PM84 °FPassing clouds.N/A66%29.83 "HgN/A
6:30 PM86 °FPassing clouds.N/A66%29.83 "HgN/A
5:30 PM88 °FScattered clouds.N/A62%29.83 "HgN/A
4:30 PM90 °FScattered clouds.N/A59%29.86 "HgN/A
3:30 PM95 °FPassing clouds.N/A47%29.86 "HgN/A
2:30 PM97 °FPassing clouds.N/A47%29.89 "HgN/A
1:30 PM99 °FPassing clouds.N/A47%29.89 "HgN/A
12:30 PM99 °FPassing clouds.N/A44%29.95 "HgN/A
11:30 AM97 °FPassing clouds.N/A53%29.95 "HgN/A
10:30 AM91 °FPassing clouds.N/A67%29.95 "HgN/A
9:30 AM90 °FPassing clouds.N/A67%29.95 "HgN/A
8:30 AM86 °FScattered clouds.N/A66%29.92 "HgN/A
6:30 AM79 °FWarm.N/A79%29.86 "HgN/A
5:30 AM79 °FScattered clouds.N/A84%29.86 "HgN/A
Weather by CustomWeather, © 2015

See weather overviewHow to use our weather pages